This is the latest recevied weather packets stored in our database for station/object TVARMINN. If no packets are shown the sender has not sent any weather packets the latest 10 day(s).
| Time | Temp. | Humidity | Pressure | Rain* | Wind** | Luminosity | Snow |
|---|---|---|---|---|---|---|---|
| 1777452411 | 6.67° C | 36% | 1026.6 hPa | 0 mm | - | - | - |
| 1777451211 | 5.56° C | 36% | 1026.6 hPa | 0 mm | - | - | - |
| 1777450011 | 6.11° C | 38% | 1026.6 hPa | 0 mm | - | - | - |
| 1777448811 | 5.56° C | 37% | 1026.6 hPa | 0 mm | - | - | - |
| 1777447611 | 5° C | 37% | 1026.6 hPa | 0 mm | - | - | - |
| 1777446411 | 5.56° C | 40% | 1026.6 hPa | 0 mm | - | - | - |
| 1777445211 | 4.44° C | 44% | 1026.6 hPa | 0 mm | - | - | - |
| 1777444010 | 4.44° C | 45% | 1026.6 hPa | 0 mm | - | - | - |
| 1777442810 | 3.89° C | 49% | 1026.5 hPa | 0 mm | - | - | - |
| 1777441610 | 3.33° C | 50% | 1026.5 hPa | 0 mm | - | - | - |
| 1777440411 | 3.33° C | 53% | 1026.5 hPa | 0 mm | - | - | - |
| 1777439211 | 2.22° C | 54% | 1026.3 hPa | 0 mm | - | - | - |
| 1777438010 | 1.67° C | 55% | 1026.3 hPa | 0 mm | - | - | - |
| 1777436811 | 1.11° C | 58% | 1026.2 hPa | 0 mm | - | - | - |
| 1777435610 | 0.56° C | 59% | 1026.1 hPa | 0 mm | - | - | - |
| 1777434410 | -0.56° C | 60% | 1025.9 hPa | 0 mm | - | - | - |
| 1777433210 | -0.56° C | 60% | 1025.8 hPa | 0 mm | - | - | - |
| 1777432011 | 0° C | 58% | 1025.5 hPa | 0 mm | - | - | - |
| 1777430810 | 0° C | 57% | 1025.4 hPa | 0 mm | - | - | - |
| 1777429611 | 0.56° C | 57% | 1025.1 hPa | 0 mm | - | - | - |
| 1777428411 | 0.56° C | 56% | 1025 hPa | 0 mm | - | - | - |
| 1777427210 | 0.56° C | 56% | 1024.9 hPa | 0 mm | - | - | - |
| 1777426010 | 1.11° C | 55% | 1024.8 hPa | 0 mm | - | - | - |
| 1777424811 | 1.11° C | 54% | 1024.6 hPa | 0 mm | - | - | - |
| 1777423610 | 1.11° C | 53% | 1024.6 hPa | 0 mm | - | - | - |
* Rain latest hour (hover to see other rain measurements)
** Current wind speed in m/s (hover to see current wind gust speed)